GIA222 WIII-WAHQ

Flight info

Callsign GIA222
Flight time N/A
Altitude 35000
Route CA T3 ANY W17N PURWO
Aircraft B738/M-SDE2E3FGHIRWXY/LB1

Departure

Time 2026-05-07 23:32
Airport Soekarno-Hatta International Airport (WIII)

Arrival

Time N/A
Airport Adisoemarmo International Airport (WAHQ)
Time Latitude Longitude Altitude Speed Heading
2026-05-07 23:04 -6.11565 106.66968 37 ft 0 kts 131°
2026-05-07 23:20 -6.11564 106.66968 37 ft 1 kts 131°
2026-05-07 23:20 -6.11547 106.66955 37 ft 4 kts 161°
2026-05-07 23:20 -6.11527 106.66947 37 ft 4 kts 158°
2026-05-07 23:20 -6.11502 106.66937 37 ft 4 kts 158°
2026-05-07 23:21 -6.11479 106.66928 37 ft 4 kts 149°
2026-05-07 23:21 -6.11466 106.66913 36 ft 4 kts 79°
2026-05-07 23:21 -6.11474 106.66891 37 ft 2 kts 68°
2026-05-07 23:21 -6.11474 106.66889 37 ft 0 kts 68°
2026-05-07 23:28 -6.11473 106.66892 37 ft 2 kts 68°
2026-05-07 23:28 -6.11460 106.66920 36 ft 7 kts 57°
2026-05-07 23:28 -6.11417 106.66944 36 ft 8 kts
2026-05-07 23:28 -6.11356 106.66926 37 ft 11 kts 338°
2026-05-07 23:29 -6.11275 106.66893 37 ft 9 kts 338°
2026-05-07 23:29 -6.11212 106.66867 37 ft 11 kts 335°
2026-05-07 23:29 -6.11156 106.66842 37 ft 7 kts 342°
2026-05-07 23:29 -6.11108 106.66864 36 ft 10 kts 57°
2026-05-07 23:30 -6.11076 106.66939 37 ft 13 kts 62°
2026-05-07 23:30 -6.11013 106.66974 38 ft 9 kts
2026-05-07 23:30 -6.10961 106.66949 38 ft 9 kts 311°
2026-05-07 23:30 -6.10938 106.66894 38 ft 9 kts 288°
2026-05-07 23:31 -6.10925 106.66833 37 ft 9 kts 260°
2026-05-07 23:31 -6.10939 106.66798 37 ft 0 kts 245°
2026-05-07 23:31 -6.10943 106.66788 36 ft 7 kts 246°
2026-05-07 23:32 -6.10984 106.66686 36 ft 51 kts 248°
2026-05-07 23:32 -6.11231 106.66064 38 ft 137 kts 248°
2026-05-07 23:32 -6.11662 106.65004 330 ft 183 kts 247°
2026-05-07 23:32 -6.12120 106.63795 1440 ft 182 kts 250°
2026-05-07 23:33 -6.12154 106.62460 2199 ft 209 kts 285°
2026-05-07 23:33 -6.11679 106.61028 2823 ft 222 kts 287°
2026-05-07 23:33 -6.11192 106.59507 3414 ft 235 kts 286°
2026-05-07 23:33 -6.10701 106.57905 4008 ft 245 kts 286°
2026-05-07 23:34 -6.10206 106.56227 4588 ft 256 kts 286°
2026-05-07 23:34 -6.09701 106.54479 5179 ft 265 kts 286°
2026-05-07 23:34 -6.09176 106.52666 5735 ft 276 kts 288°
2026-05-07 23:34 -6.08183 106.50971 6279 ft 292 kts 316°
2026-05-07 23:35 -6.06429 106.49913 6877 ft 298 kts 346°
2026-05-07 23:35 -6.04448 106.49901 7438 ft 286 kts 19°
2026-05-07 23:35 -6.02614 106.50669 8057 ft 288 kts 32°
2026-05-07 23:35 -6.01174 106.52026 8613 ft 285 kts 60°
2026-05-07 23:36 -6.00445 106.53869 9213 ft 286 kts 78°
2026-05-07 23:36 -6.00109 106.55845 9804 ft 289 kts 83°
2026-05-07 23:36 -5.99849 106.57867 10385 ft 296 kts 83°
2026-05-07 23:36 -5.99591 106.59968 10978 ft 310 kts 83°
2026-05-07 23:37 -5.99313 106.62166 11577 ft 324 kts 83°
2026-05-07 23:37 -5.99013 106.64453 12169 ft 336 kts 82°
2026-05-07 23:37 -5.98693 106.66819 12746 ft 347 kts 82°
2026-05-07 23:37 -5.98354 106.69277 13214 ft 361 kts 82°
2026-05-07 23:38 -5.98001 106.71814 13677 ft 372 kts 82°
2026-05-07 23:38 -5.97645 106.74362 14125 ft 382 kts 82°
2026-05-07 23:38 -5.97272 106.77022 14577 ft 385 kts 82°
2026-05-07 23:38 -5.96898 106.79689 15021 ft 386 kts 82°
2026-05-07 23:39 -5.96563 106.82364 15459 ft 387 kts 87°
2026-05-07 23:39 -5.96868 106.85058 15901 ft 389 kts 106°
2026-05-07 23:39 -5.97850 106.87599 16386 ft 391 kts 112°
2026-05-07 23:39 -5.98937 106.90108 16829 ft 393 kts 113°
2026-05-07 23:40 -6.00049 106.92628 17278 ft 395 kts 113°
2026-05-07 23:40 -6.01161 106.95160 17731 ft 398 kts 113°
2026-05-07 23:40 -6.02258 106.97684 18172 ft 401 kts 112°
2026-05-07 23:40 -6.03370 107.00270 18626 ft 403 kts 112°
2026-05-07 23:41 -6.04480 107.02869 19079 ft 406 kts 112°
2026-05-07 23:41 -6.05597 107.05495 19531 ft 410 kts 112°
2026-05-07 23:41 -6.06721 107.08142 19984 ft 413 kts 112°
2026-05-07 23:41 -6.07853 107.10808 20432 ft 416 kts 112°
2026-05-07 23:42 -6.08993 107.13494 20888 ft 420 kts 112°
2026-05-07 23:42 -6.10142 107.16199 21339 ft 422 kts 112°
2026-05-07 23:42 -6.11298 107.18922 21792 ft 425 kts 112°
2026-05-07 23:42 -6.12461 107.21660 22241 ft 426 kts 112°
2026-05-07 23:43 -6.13612 107.24371 22685 ft 428 kts 112°
2026-05-07 23:43 -6.14780 107.27130 23136 ft 430 kts 112°
2026-05-07 23:43 -6.15951 107.29895 23578 ft 431 kts 112°
2026-05-07 23:43 -6.17126 107.32670 24033 ft 432 kts 112°
2026-05-07 23:44 -6.18304 107.35454 24480 ft 433 kts 112°
2026-05-07 23:44 -6.19482 107.38237 24932 ft 433 kts 112°
2026-05-07 23:44 -6.20662 107.41029 25380 ft 434 kts 112°
2026-05-07 23:44 -6.21845 107.43827 25830 ft 434 kts 112°
2026-05-07 23:45 -6.23027 107.46620 26278 ft 435 kts 113°
2026-05-07 23:45 -6.24209 107.49415 26710 ft 435 kts 113°
2026-05-07 23:45 -6.25400 107.52232 27032 ft 439 kts 113°
2026-05-07 23:45 -6.26598 107.55066 27360 ft 441 kts 113°
2026-05-07 23:46 -6.27800 107.57910 27686 ft 443 kts 113°
2026-05-07 23:46 -6.29007 107.60768 28019 ft 445 kts 113°
2026-05-07 23:46 -6.30223 107.63643 28340 ft 447 kts 113°
2026-05-07 23:46 -6.31442 107.66529 28666 ft 449 kts 113°
2026-05-07 23:47 -6.32661 107.69417 29135 ft 446 kts 113°
2026-05-07 23:47 -6.33855 107.72244 30077 ft 432 kts 114°
2026-05-07 23:47 -6.35009 107.74982 31001 ft 420 kts 114°
2026-05-07 23:47 -6.36147 107.77679 31548 ft 420 kts 113°
2026-05-07 23:48 -6.37282 107.80369 31800 ft 426 kts 113°
2026-05-07 23:48 -6.38446 107.83126 32061 ft 431 kts 113°
2026-05-07 23:48 -6.39622 107.85913 32388 ft 433 kts 113°
2026-05-07 23:48 -6.40801 107.88708 32716 ft 436 kts 113°
2026-05-07 23:49 -6.41988 107.91524 33033 ft 438 kts 113°
2026-05-07 23:49 -6.43180 107.94352 33359 ft 441 kts 113°
2026-05-07 23:49 -6.44379 107.97195 33653 ft 443 kts 113°
2026-05-07 23:49 -6.45587 108.00061 33919 ft 446 kts 113°
2026-05-07 23:50 -6.46814 108.02954 34101 ft 452 kts 113°
2026-05-07 23:50 -6.48072 108.05865 34314 ft 455 kts 114°
2026-05-07 23:50 -6.49328 108.08751 34615 ft 456 kts 114°
2026-05-07 23:50 -6.50600 108.11669 34873 ft 458 kts 114°
2026-05-07 23:51 -6.53165 108.17562 34856 ft 458 kts 114°
2026-05-07 23:51 -6.55690 108.23383 34858 ft 452 kts 114°
2026-05-07 23:52 -6.58201 108.29187 34866 ft 453 kts 113°
2026-05-07 23:52 -6.60721 108.35007 34863 ft 454 kts 114°
2026-05-07 23:53 -6.63247 108.40843 34862 ft 455 kts 114°
2026-05-07 23:53 -6.65755 108.46641 34862 ft 456 kts 114°
2026-05-07 23:54 -6.68302 108.52531 34862 ft 457 kts 114°
2026-05-07 23:54 -6.70357 108.58506 34871 ft 456 kts 99°
2026-05-07 23:55 -6.71296 108.64810 34865 ft 456 kts 98°
2026-05-07 23:55 -6.72175 108.71140 34860 ft 456 kts 98°
2026-05-07 23:56 -6.73106 108.77459 34859 ft 456 kts 98°
2026-05-07 23:56 -6.74069 108.83776 34861 ft 456 kts 99°
2026-05-07 23:57 -6.75039 108.90074 34861 ft 456 kts 99°
2026-05-07 23:57 -6.76005 108.96367 34861 ft 455 kts 99°
2026-05-07 23:58 -6.76970 109.02659 34861 ft 455 kts 99°
2026-05-07 23:58 -6.77933 109.08951 34859 ft 454 kts 99°
2026-05-07 23:59 -6.78895 109.15244 34860 ft 455 kts 99°
2026-05-07 23:59 -6.79851 109.21494 34862 ft 455 kts 99°
2026-05-08 00:00 -6.80814 109.27794 34863 ft 455 kts 99°
2026-05-08 00:00 -6.81775 109.34099 34860 ft 456 kts 99°
2026-05-08 00:01 -6.82736 109.40404 34863 ft 456 kts 99°
2026-05-08 00:01 -6.83696 109.46710 34838 ft 456 kts 99°
2026-05-08 00:02 -6.84180 109.49891 34267 ft 460 kts 99°
2026-05-08 00:02 -6.84663 109.53066 33616 ft 459 kts 99°
2026-05-08 00:02 -6.85146 109.56246 32912 ft 459 kts 99°
2026-05-08 00:02 -6.85622 109.59376 32375 ft 456 kts 99°
2026-05-08 00:03 -6.86100 109.62519 31856 ft 452 kts 99°
2026-05-08 00:03 -6.86573 109.65634 31339 ft 448 kts 99°
2026-05-08 00:03 -6.87040 109.68716 30828 ft 444 kts 99°
2026-05-08 00:03 -6.87504 109.71778 30319 ft 440 kts 99°
2026-05-08 00:04 -6.87963 109.74808 29818 ft 436 kts 99°
2026-05-08 00:04 -6.88418 109.77808 29314 ft 432 kts 99°
2026-05-08 00:04 -6.88870 109.80788 28798 ft 428 kts 99°
2026-05-08 00:04 -6.89317 109.83739 28289 ft 425 kts 99°
2026-05-08 00:05 -6.89612 109.85680 27946 ft 423 kts 99°
2026-05-08 00:05 -6.90199 109.89561 27260 ft 418 kts 99°
2026-05-08 00:05 -6.90588 109.92130 26810 ft 415 kts 99°
2026-05-08 00:05 -6.91020 109.94988 26308 ft 411 kts 98°
2026-05-08 00:06 -6.91448 109.97826 25817 ft 408 kts 98°
2026-05-08 00:06 -6.91867 110.00600 25317 ft 405 kts 98°
2026-05-08 00:06 -6.92288 110.03385 24825 ft 401 kts 98°
2026-05-08 00:06 -6.92706 110.06156 24332 ft 398 kts 98°
2026-05-08 00:07 -6.93120 110.08897 23845 ft 395 kts 98°
2026-05-08 00:07 -6.93530 110.11617 23364 ft 391 kts 98°
2026-05-08 00:07 -6.93937 110.14318 22878 ft 388 kts 98°
2026-05-08 00:07 -6.94340 110.16994 22412 ft 385 kts 98°
2026-05-08 00:08 -6.94740 110.19650 21930 ft 382 kts 98°
2026-05-08 00:08 -6.95003 110.21393 21625 ft 380 kts 98°
2026-05-08 00:08 -6.95530 110.24898 20990 ft 376 kts 98°
2026-05-08 00:08 -6.95921 110.27492 20524 ft 373 kts 98°
2026-05-08 00:09 -6.96177 110.29195 20218 ft 371 kts 98°
2026-05-08 00:09 -6.96691 110.32614 19599 ft 367 kts 98°
2026-05-08 00:09 -6.97071 110.35140 19147 ft 364 kts 98°
2026-05-08 00:09 -6.97614 110.37585 18689 ft 361 kts 108°
2026-05-08 00:10 -6.98572 110.39906 18235 ft 358 kts 118°
2026-05-08 00:10 -6.99819 110.42062 17787 ft 355 kts 121°
2026-05-08 00:10 -7.01104 110.44177 17335 ft 353 kts 121°
2026-05-08 00:10 -7.02388 110.46274 16889 ft 351 kts 121°
2026-05-08 00:11 -7.03657 110.48358 16443 ft 348 kts 121°
2026-05-08 00:11 -7.04910 110.50429 16013 ft 345 kts 121°
2026-05-08 00:11 -7.07379 110.54544 15117 ft 341 kts 121°
2026-05-08 00:12 -7.08187 110.55895 14834 ft 339 kts 121°
2026-05-08 00:12 -7.09806 110.58605 14257 ft 336 kts 121°